This demonstration page uses our WeatherBlox Daily Observations layout. Learn more.

Left ArrowRight Arrow

39.51506, -84.39828

Hourly Observations for May 27, 2017

Temp ( °F °C ) Dew Point ( °F °C ) Humidity (%) Winds ( mph kmh ) Pressure ( in mb ) Visibility ( mi km ) Precip ( " mm )
12:15 am 00:15 Clear 67 19.2 60 15.7 80 80 N N/A 29.83 1010 10 16 N/A
12:35 am 00:35 Mostly Cloudy 65 18.2 59 15.1 82 82 N N/A 29.83 1010 10 16 N/A
12:55 am 00:55 Cloudy 67 19.5 61 16.3 82 82 N 3 6 29.83 1010 10 16 N/A
1:15 am 01:15 Cloudy 67 19.5 61 16.3 82 82 N N/A 29.83 1010 10 16 N/A
1:35 am 01:35 Cloudy 67 19.5 61 16.3 82 82 N N/A 29.83 1010 10 16 N/A
1:55 am 01:55 Cloudy 67 19.5 62 16.5 83 83 N N/A 29.83 1010 10 16 N/A
2:15 am 02:15 Cloudy 67 19.5 62 16.5 83 83 N N/A 29.83 1010 10 16 N/A
2:35 am 02:35 Cloudy 67 19.5 62 16.6 83 83 SW 3 6 29.83 1010 10 16 N/A
2:55 am 02:55 Cloudy with Light Rain 67 19.5 62 16.7 84 84 S 8 13 29.83 1010 10 16 N/A
3:15 am 03:15 Cloudy 69 20.8 64 17.5 82 82 SSW 7 11 29.83 1010 10 16 N/A
3:35 am 03:35 Cloudy with Drizzle 69 20.8 64 17.7 83 83 SSW 5 7 29.83 1010 10 16 N/A
3:55 am 03:55 Cloudy 69 20.8 64 17.7 83 83 N N/A 29.83 1010 10 16 N/A
4:15 am 04:15 Cloudy 69 20.8 64 17.8 83 83 N N/A 29.83 1010 10 16 N/A
4:35 am 04:35 Cloudy 69 20.8 64 17.8 83 83 N N/A 29.83 1010 10 16 N/A
4:55 am 04:55 Cloudy 69 20.8 65 18.1 85 85 N N/A 29.83 1010 7 11 N/A
5:15 am 05:15 Cloudy 69 20.8 65 18.1 85 85 N N/A 29.83 1010 10 16 N/A
5:35 am 05:35 Cloudy 69 20.8 65 18.1 85 85 N N/A 29.83 1010 10 16 N/A
5:55 am 05:55 Cloudy 69 20.8 65 18.1 85 85 N N/A 29.83 1010 7 11 N/A
6:15 am 06:15 Cloudy 69 20.8 65 18.1 85 85 N N/A 29.83 1010 7 11 N/A
6:35 am 06:35 Cloudy 69 20.8 65 18.2 85 85 N N/A 29.83 1010 7 11 N/A
6:55 am 06:55 Cloudy 69 20.8 65 18.2 85 85 N N/A 29.83 1010 7 11 N/A
7:15 am 07:15 Cloudy 69 20.8 65 18.1 85 85 N N/A 29.83 1010 10 16 N/A
7:35 am 07:35 Cloudy 69 20.8 65 18.1 85 85 N N/A 29.83 1010 10 16 N/A
7:55 am 07:55 Cloudy 69 20.8 64 17.9 84 84 SW 5 7 29.85 1011 10 16 N/A
8:15 am 08:15 Cloudy 69 20.8 64 17.7 83 83 WSW 5 7 29.85 1011 10 16 N/A
8:35 am 08:35 Mostly Cloudy 72 22.3 66 19 82 82 SSW 5 7 29.85 1011 10 16 N/A
8:55 am 08:55 Mostly Cloudy 74 23.6 68 19.8 79 79 SW 3 6 29.85 1011 10 16 N/A
9:15 am 09:15 Cloudy 74 23.6 67 19.6 78 78 SW 5 7 29.85 1011 10 16 N/A
9:35 am 09:35 Cloudy 74 23.6 67 19.5 78 78 WSW 6 9 29.85 1011 10 16 N/A
9:55 am 09:55 Cloudy 74 23.6 67 19.4 77 77 WSW 7 11 29.85 1011 10 16 N/A
10:15 am 10:15 Cloudy 74 23.6 66 19.1 76 76 N N/A 29.85 1011 10 16 N/A
10:35 am 10:35 Cloudy 74 23.6 66 19.1 76 76 W 5 7 29.85 1011 10 16 N/A
10:55 am 10:55 Cloudy 74 23.6 66 19.1 76 76 WSW 6 9 29.85 1011 10 16 N/A
11:15 am 11:15 Cloudy 75 23.9 65 18.6 72 72 SW 7 11 29.85 1011 10 16 N/A
11:35 am 11:35 Cloudy 77 25 67 19.4 71 71 SSW 7 11 29.85 1011 10 16 N/A
11:55 am 11:55 Cloudy 74 23.6 66 18.7 74 74 SW 8 13 29.85 1011 10 16 N/A
12:15 pm 12:15 Cloudy 77 25.1 68 19.9 73 73 SSW 7 11 29.85 1011 10 16 N/A
12:35 pm 12:35 Cloudy 77 25.1 67 19.4 71 71 SW 6 9 29.85 1011 10 16 N/A
12:55 pm 12:55 Cloudy 77 25.1 67 19.2 70 70 SW 7 11 29.85 1011 10 16 N/A
1:15 pm 13:15 Mostly Cloudy 80 26.5 67 19.4 65 65 SSW 6 9 29.85 1011 10 16 N/A
1:35 pm 13:35 Mostly Cloudy 80 26.5 67 19.4 65 65 SSW 7 11 29.85 1011 10 16 N/A
1:55 pm 13:55 Mostly Cloudy 77 25.1 66 18.7 68 68 SW 6 9 29.88 1012 10 16 N/A
2:15 pm 14:15 Mostly Cloudy 80 26.5 67 19.4 65 65 W 6 9 29.85 1011 10 16 N/A
2:35 pm 14:35 Partly Cloudy 80 26.5 66 18.8 63 63 WSW 5 7 29.85 1011 10 16 N/A
2:55 pm 14:55 Partly Cloudy 82 27.8 65 18.2 56 56 W 7 11 29.83 1010 10 16 N/A
3:15 pm 15:15 Partly Cloudy 82 27.6 64 17.5 54 54 WSW 7 11 29.83 1010 10 16 N/A
3:35 pm 15:35 Partly Cloudy 82 28 62 16.4 49 49 W 12 19 29.80 1009 10 16 N/A
3:55 pm 15:55 Partly Cloudy 83 28.1 61 16.2 48 48 SW 8 13 29.80 1009 10 16 N/A
4:15 pm 16:15 Partly Cloudy 83 28.2 61 16.3 48 48 W 7 11 29.80 1009 10 16 N/A
4:35 pm 16:35 Partly Cloudy 83 28.1 61 16.1 48 48 W 7 11 29.80 1009 10 16 N/A
4:55 pm 16:55 Partly Cloudy 83 28.3 61 16.1 48 48 WSW 9 15 29.80 1009 10 16 N/A
5:15 pm 17:15 Partly Cloudy 83 28.6 61 16.1 47 47 WSW 7 11 29.80 1009 10 16 N/A
5:35 pm 17:35 Partly Cloudy 83 28.1 61 16 48 48 W 9 15 29.80 1009 10 16 N/A
5:55 pm 17:55 Partly Cloudy 83 28.2 61 15.9 47 47 WSW 8 13 29.80 1009 10 16 N/A
6:15 pm 18:15 Partly Cloudy 83 28.1 61 16.3 49 49 W 6 9 29.80 1009 10 16 N/A
6:35 pm 18:35 Partly Cloudy 82 28 62 16.7 50 50 NW 5 7 29.80 1009 10 16 N/A
6:55 pm 18:55 Partly Cloudy 82 28 63 17.1 52 52 N 3 6 29.80 1009 10 16 N/A
7:15 pm 19:15 Sunny 81 27.2 63 17.1 54 54 N N/A 29.80 1009 10 16 N/A
7:35 pm 19:35 Partly Cloudy 80 26.5 64 17.7 59 59 N N/A 29.80 1009 10 16 N/A
7:55 pm 19:55 Partly Cloudy 80 26.5 66 18.9 63 63 N N/A 29.80 1009 10 16 N/A
8:15 pm 20:15 Sunny 77 25.1 66 18.9 69 69 NNW 3 6 29.83 1010 10 16 N/A
8:35 pm 20:35 Sunny 77 25.1 66 19 69 69 N N/A 29.83 1010 10 16 N/A
8:55 pm 20:55 Sunny 74 23.6 67 19.4 77 77 N N/A 29.83 1010 10 16 N/A
9:15 pm 21:15 Clear 74 23.6 65 18.5 73 73 NNW 5 7 29.83 1010 10 16 N/A
9:35 pm 21:35 Clear 74 23.6 67 19.3 77 77 N N/A 29.83 1010 10 16 N/A
9:55 pm 21:55 Clear 74 23.6 67 19.2 76 76 NE 3 6 29.83 1010 10 16 N/A
10:15 pm 22:15 Clear 73 22.5 65 18.4 78 78 N N/A 29.83 1010 10 16 N/A
10:35 pm 22:35 Clear 74 23.6 66 18.8 75 75 NNW 3 6 29.83 1010 10 16 N/A
10:55 pm 22:55 Mostly Cloudy 73 22.5 65 18.2 77 77 N N/A 29.83 1010 10 16 N/A
11:15 pm 23:15 Partly Cloudy 69 20.8 63 17.3 80 80 N N/A 29.83 1010 10 16 N/A
11:35 pm 23:35 Partly Cloudy 69 20.8 63 17 79 79 N 3 6 29.83 1010 10 16 N/A
11:55 pm 23:55 Mostly Cloudy 70 21.2 63 17.4 79 79 N N/A 29.83 1010 10 16 N/A

Powered by AerisWeather